Warsaw, IN

5:59 AM EDT on August 18, 2017 (GMT -0400)
Warsaw Municipal

Weather History for KASW - January, 2014

Change the Weather History Date:

Tuesday, January 28, 2014

  Actual Average Record
Temperature  
Mean Temperature -5 °F -  
Max Temperature 3 °F 29 °F 53 °F (2006)
Min Temperature -13 °F 13 °F -15 °F (1963)
Degree Days  
Heating Degree Days 70    
Moisture  
Dew Point -14 °F    
Average Humidity 67    
Maximum Humidity 78    
Minimum Humidity 47    
Precipitation  
Precipitation 0.00 in - - ()
Sea Level Pressure  
Sea Level Pressure 30.35 in    
Wind  
Wind Speed 8 mph (WSW)    
Max Wind Speed 13 mph    
Max Gust Speed 18 mph    
Visibility 10 miles    
Events      
Averages and records for this station are not official NWS values.
T = Trace of Precipitation, MM = Missing Value Source: NWS Daily Summary

Daily Weather History Graph

Daily Weather History Graph

Search for Another Location

Airport or City:

Trip Planner

Search our weather history database for the weather conditions in past years. The results will help you decide how hot, cold, wet, or windy it might be!

Date:

Astronomy

Jan. 28, 2014 Rise Set
Actual Time 7:58 AM EST 5:54 PM EST
Civil Twilight 7:28 AM EST 6:24 PM EST
Nautical Twilight 6:55 AM EST 6:57 PM EST
Astronomical Twilight 6:22 AM EST 7:30 PM EST
Moon 5:39 AM EST (1/28) 3:43 PM EST (1/28)
Length of Visible Light 10h 55m
Length of Day
9h 56m
Waning Crescent, 7% of the Moon is Illuminated
Jan 28
Waning Crescent
Jan 30
New
Feb 6
First Quarter
Feb 14
Full
Feb 22
Last Quarter

Hourly Weather History & Observations

Time (EST) Temp. Windchill Dew Point Humidity Pressure Visibility Wind Dir Wind Speed Gust Speed Precip Events Conditions
12:15 AM -9.4 °F -26.8 °F -16.6 °F 71% 30.38 in 10.0 mi WSW 9.2 mph - N/A   Clear
12:35 AM -9.4 °F -27.9 °F -16.6 °F 71% 30.38 in 10.0 mi WSW 10.4 mph - N/A   Clear
12:55 AM -9.4 °F -25.6 °F -16.6 °F 71% 30.38 in 10.0 mi WSW 8.1 mph - N/A   Clear
1:15 AM -9.4 °F -25.6 °F -16.6 °F 71% 30.38 in 10.0 mi WSW 8.1 mph - N/A   Clear
1:35 AM -9.4 °F -24.3 °F -16.6 °F 71% 30.38 in 10.0 mi WSW 6.9 mph - N/A   Clear
1:55 AM -9.4 °F -24.3 °F -16.6 °F 71% 30.38 in 10.0 mi WSW 6.9 mph - N/A   Clear
2:15 AM -9.4 °F -22.7 °F -16.6 °F 71% 30.38 in 10.0 mi SW 5.8 mph - N/A   Clear
2:35 AM -9.4 °F -25.6 °F -16.6 °F 71% 30.39 in 10.0 mi SW 8.1 mph - N/A   Clear
2:55 AM -9.4 °F -25.6 °F -16.6 °F 71% 30.39 in 10.0 mi WSW 8.1 mph - N/A   Clear
3:15 AM -9.4 °F -25.6 °F -16.6 °F 71% 30.39 in 10.0 mi WSW 8.1 mph - N/A   Clear
3:35 AM -11.2 °F -26.4 °F -18.4 °F 70% 30.38 in 10.0 mi WSW 6.9 mph - N/A   Clear
3:55 AM -11.2 °F -26.4 °F -18.4 °F 70% 30.38 in 10.0 mi WSW 6.9 mph - N/A   Clear
4:15 AM -11.2 °F -27.8 °F -18.4 °F 70% 30.37 in 10.0 mi West 8.1 mph - N/A   Clear
4:35 AM -11.2 °F -26.4 °F -18.4 °F 70% 30.38 in 10.0 mi WSW 6.9 mph - N/A   Clear
4:55 AM -11.2 °F -27.8 °F -18.4 °F 70% 30.38 in 10.0 mi West 8.1 mph - N/A   Clear
5:15 AM -13.0 °F -28.6 °F -18.4 °F 77% 30.38 in 10.0 mi WSW 6.9 mph - N/A   Clear
5:35 AM -13.0 °F -27.0 °F -18.4 °F 77% 30.40 in 10.0 mi WSW 5.8 mph - N/A   Clear
5:55 AM -13.0 °F -27.0 °F -18.4 °F 77% 30.38 in 10.0 mi SW 5.8 mph - N/A   Clear
6:15 AM -13.0 °F -27.0 °F -18.4 °F 77% 30.38 in 10.0 mi SW 5.8 mph - N/A   Clear
6:35 AM -13.0 °F -28.6 °F -18.4 °F 77% 30.38 in 10.0 mi WSW 6.9 mph - N/A   Clear
6:55 AM -13.0 °F -28.6 °F -18.4 °F 77% 30.40 in 10.0 mi WSW 6.9 mph - N/A   Clear
7:15 AM -13.0 °F -27.0 °F -18.4 °F 77% 30.40 in 10.0 mi SW 5.8 mph - N/A   Clear
7:35 AM -13.0 °F -25.1 °F -18.4 °F 77% 30.41 in 10.0 mi SW 4.6 mph - N/A   Clear
7:55 AM -13.0 °F -25.1 °F -18.4 °F 77% 30.41 in 10.0 mi SW 4.6 mph - N/A   Clear
8:15 AM -13.0 °F -27.0 °F -18.4 °F 77% 30.40 in 10.0 mi WSW 5.8 mph - N/A   Clear
8:35 AM -13.0 °F -27.0 °F -18.4 °F 77% 30.40 in 10.0 mi WSW 5.8 mph - N/A   Clear
8:55 AM -11.2 °F -24.8 °F -16.6 °F 77% 30.40 in 10.0 mi WSW 5.8 mph - N/A   Clear
9:15 AM -9.4 °F -20.9 °F -16.6 °F 71% 30.40 in 10.0 mi WSW 4.6 mph - N/A   Clear
9:35 AM -9.4 °F -25.6 °F -16.6 °F 71% 30.42 in 10.0 mi WSW 8.1 mph - N/A   Clear
9:55 AM -7.6 °F -20.6 °F -14.8 °F 71% 30.42 in 10.0 mi WSW 5.8 mph - N/A   Clear
10:15 AM -5.8 °F -19.9 °F -14.8 °F 65% 30.41 in 10.0 mi SW 6.9 mph - N/A   Clear
10:35 AM -5.8 °F -19.9 °F -14.8 °F 65% 30.42 in 10.0 mi SW 6.9 mph - N/A   Clear
10:55 AM -4.0 °F -17.8 °F -14.8 °F 60% 30.41 in 10.0 mi WSW 6.9 mph - N/A   Clear
11:15 AM -4.0 °F -21.2 °F -14.8 °F 60% 30.41 in 10.0 mi WSW 10.4 mph - N/A   Clear
11:35 AM -2.2 °F -16.8 °F -14.8 °F 55% 30.40 in 10.0 mi WSW 8.1 mph - N/A   Clear
11:55 AM -0.4 °F -15.7 °F -14.8 °F 51% 30.40 in 10.0 mi WSW 9.2 mph - N/A   Clear
12:15 PM -0.4 °F -15.7 °F -13.0 °F 55% 30.38 in 10.0 mi WSW 9.2 mph - N/A   Clear
12:35 PM -0.4 °F -15.7 °F -13.0 °F 55% 30.37 in 10.0 mi SW 9.2 mph - N/A   Clear
12:55 PM -0.4 °F -16.7 °F -13.0 °F 55% 30.37 in 10.0 mi SW 10.4 mph - N/A   Clear
1:15 PM 1.4 °F -15.3 °F -13.0 °F 51% 30.35 in 10.0 mi WSW 11.5 mph - N/A   Clear
1:35 PM 1.4 °F -15.3 °F -13.0 °F 51% 30.35 in 10.0 mi West 11.5 mph - N/A   Clear
1:55 PM 1.4 °F -16.1 °F -13.0 °F 51% 30.34 in 10.0 mi WSW 12.7 mph 16.1 mph N/A   Clear
2:15 PM 1.4 °F -13.5 °F -13.0 °F 51% 30.34 in 10.0 mi WSW 9.2 mph 17.3 mph N/A   Clear
2:35 PM 3.2 °F -13.1 °F -11.2 °F 51% 30.33 in 10.0 mi WSW 11.5 mph - N/A   Clear
2:55 PM 3.2 °F -13.9 °F -13.0 °F 47% 30.32 in 10.0 mi West 12.7 mph 18.4 mph N/A   Clear
3:15 PM 3.2 °F -13.9 °F -11.2 °F 51% 30.32 in 10.0 mi WSW 12.7 mph - N/A   Clear
3:35 PM 3.2 °F -12.2 °F -11.2 °F 51% 30.31 in 10.0 mi WSW 10.4 mph - N/A   Clear
3:55 PM 3.2 °F -13.9 °F -11.2 °F 51% 30.31 in 10.0 mi WSW 12.7 mph - N/A   Clear
4:15 PM 3.2 °F -13.9 °F -9.4 °F 56% 30.31 in 10.0 mi WSW 12.7 mph - N/A   Clear
4:35 PM 3.2 °F -12.2 °F -9.4 °F 56% 30.30 in 10.0 mi WSW 10.4 mph 17.3 mph N/A   Clear
4:55 PM 3.2 °F -11.3 °F -9.4 °F 56% 30.30 in 10.0 mi SW 9.2 mph - N/A   Clear
5:15 PM 1.4 °F -11.3 °F -9.4 °F 61% 30.30 in 10.0 mi SW 6.9 mph - N/A   Clear
5:35 PM 1.4 °F -13.5 °F -9.4 °F 61% 30.30 in 10.0 mi WSW 9.2 mph - N/A   Clear
5:55 PM 1.4 °F -15.3 °F -9.4 °F 61% 30.29 in 10.0 mi SW 11.5 mph 17.3 mph N/A   Clear
6:15 PM -0.4 °F -14.7 °F -9.4 °F 66% 30.30 in 10.0 mi SW 8.1 mph - N/A   Clear
6:35 PM -0.4 °F -14.7 °F -9.4 °F 66% 30.30 in 10.0 mi WSW 8.1 mph - N/A   Clear
6:55 PM -0.4 °F -13.4 °F -9.4 °F 66% 30.30 in 10.0 mi WSW 6.9 mph - N/A   Clear
7:15 PM -0.4 °F -12.0 °F -9.4 °F 66% 30.30 in 10.0 mi WSW 5.8 mph - N/A   Clear
7:35 PM -0.4 °F -12.0 °F -9.4 °F 66% 30.28 in 10.0 mi SW 5.8 mph - N/A   Clear
7:55 PM -0.4 °F -12.0 °F -9.4 °F 66% 30.28 in 10.0 mi WSW 5.8 mph - N/A   Clear
8:15 PM -2.2 °F -14.2 °F -9.4 °F 71% 30.28 in 10.0 mi WSW 5.8 mph - N/A   Clear
8:35 PM -2.2 °F -12.5 °F -9.4 °F 71% 30.28 in 10.0 mi WSW 4.6 mph - N/A   Clear
8:55 PM -4.0 °F -14.6 °F -9.4 °F 78% 30.27 in 10.0 mi WSW 4.6 mph - N/A   Clear
9:15 PM -2.2 °F -14.2 °F -9.4 °F 71% 30.27 in 10.0 mi SW 5.8 mph - N/A   Clear
9:35 PM -2.2 °F -15.6 °F -7.6 °F 78% 30.27 in 10.0 mi WSW 6.9 mph - N/A   Clear
9:55 PM -0.4 °F -12.0 °F -7.6 °F 72% 30.27 in 10.0 mi SW 5.8 mph - N/A   Clear
10:15 PM -0.4 °F -13.4 °F -7.6 °F 72% 30.26 in 10.0 mi WSW 6.9 mph - N/A   Clear
10:35 PM -0.4 °F -13.4 °F -7.6 °F 72% 30.26 in 10.0 mi SW 6.9 mph - N/A   Clear
10:55 PM -0.4 °F -12.0 °F -7.6 °F 72% 30.26 in 10.0 mi WSW 5.8 mph - N/A   Clear
11:15 PM -0.4 °F -10.4 °F -7.6 °F 72% 30.26 in 10.0 mi WSW 4.6 mph - N/A   Clear
11:35 PM -0.4 °F -10.4 °F -7.6 °F 72% 30.26 in 10.0 mi SW 4.6 mph - N/A   Clear
11:55 PM -2.2 °F -10.4 °F -7.6 °F 78% 30.25 in 10.0 mi SW 3.5 mph - N/A   Clear